Weather Roundup
Issued by NWS

Home | Current Version | Previous Version | Graphics & Text | Print | Product List | Glossary Off
Versions: 1 2 3 4 5 6 7 8 9 10 11 12 13 14 15 16 17 18 19 20 21 22 23 24 25 26 27 28 29 30 31 32 33 34 35 36 37 38 39 40 41 42 43 44 45 46 47 48 49 50

814
NZUS93 KARX 260059
HRRWXR

CURRENT HOURLY OBSERVATIONS ACROSS
MUCH OF THE UPPER MISSISSIPPI VALLEY
NATIONAL WEATHER SERVICE LA CROSSE WI
700 PM CST SUN FEB 25 2018


...SOUTHEAST MINNESOTA...


CITY           SKY/WX    TMP DP  RH WIND       PRES   REMARKS
ROCHESTER      FAIR      22  18  85 SW18      29.94R WCI   7
ROCHESTER/MAYO FAIR      25  20  81 SW10G18   29.95R WCI  15
WINONA         FAIR      28  21  74 SW3       29.97R
AUSTIN         FAIR      23  18  80 SW5       29.97R WCI  17
ALBERT LEA     FAIR      25  18  74 SW8       29.95R WCI  16
DODGE CENTER   FAIR      19  16  86 SW13      29.94R WCI   7
PRESTON        FAIR      24  19  83 SW13      29.97R WCI  12
OWATONNA       FAIR      21  18  86 SW12      29.94R WCI   9
FARIBAULT      FAIR      23  18  80 S6        29.94R WCI  16
$$

...ELSEWHERE IN MINNESOTA...


CITY           SKY/WX    TMP DP  RH WIND       PRES   REMARKS
MINNEAPOLIS    FAIR      28  22  78 SW13      29.90R WCI  17
INTNL FALLS    CLOUDY    22  16  78 W9        29.68R WCI  12
DULUTH         MOCLDY    26  18  71 W14       29.72R WCI  14
RED WING       FAIR      25  18  74 SW9       29.94R WCI  15
REDWOOD FALLS  CLEAR     24  18  77 SW12      29.91R WCI  13
MANKATO        FAIR      23  18  81 SW10      29.96  WCI  12
WORTHINGTON    CLEAR     25  18  74 SW16      29.94R WCI  12
FAIRMONT       CLEAR     22  17  81 SW12      29.98R WCI  10
$$

...SOUTHWEST WISCONSIN...


CITY           SKY/WX    TMP DP  RH WIND       PRES   REMARKS
LA CROSSE      FAIR      28  21  75 SE8       29.99R WCI  20
PRAIRIE DU CHI FAIR      33  23  68 SW6       30.03R WCI  27
BOSCOBEL       FAIR      33  24  69 SW7       30.03R WCI  27
LONE ROCK      NOT AVBL
PLATTEVILLE    FAIR      34  28  80 W13       30.02R WCI  25
FORT MC COY    FAIR      28  22  77 SW6       29.98R WCI  22
CAMP DOUGLAS   FAIR      30  22  73 SW14G23   29.95R WCI  19
MAUSTON-NEW LI FAIR      31  23  72 SW10G17   29.95R WCI  23
VIROQUA        FAIR      28  25  87 CALM      29.97R
WIS DELLS      FAIR      32  23  69 W13G20    29.95R WCI  22
$$

...ELSEWHERE IN WISCONSIN...


CITY           SKY/WX    TMP DP  RH WIND       PRES   REMARKS
MILWAUKEE      FAIR      40  24  53 SW15G23   29.99R WCI  32
MADISON        FAIR      34  25  69 W8G21     29.99R WCI  27
GREEN BAY      FAIR      34  22  61 W15G23    29.88R WCI  24
EAU CLAIRE     NOT AVBL
BLACK RVR FLS  FAIR      28  19  70 SW10      29.94R WCI  19
MEDFORD        CLOUDY    24  18  77 W14G25    29.83R WCI  12
WAUSAU         CLOUDY    26  18  71 W10       29.85R WCI  16
WIS RAPIDS     FAIR      27  19  72 MISG      29.93R
MARSHFIELD     FAIR      24  17  74 SW10      29.88R WCI  14
RICE LAKE      FAIR      24  19  82 SW7       29.87R WCI  16
$$

...NORTHEAST IOWA...


CITY           SKY/WX    TMP DP  RH WIND       PRES   REMARKS
WATERLOO       FAIR      31  25  78 W3        30.04R
DUBUQUE        FAIR      33  25  72 W12       30.03R WCI  24
DECORAH        FAIR      28  23  80 VRB5G13   29.99R WCI  23
MASON CITY     CLEAR     28  21  75 SW14      30.00R WCI  17
CHARLES CITY   FAIR      28  27  93 SW7       30.01R WCI  21
OELWEIN        FAIR      32  32 100 W10       30.02R WCI  24
$$

...ELSEWHERE IN IOWA...


CITY           SKY/WX    TMP DP  RH WIND       PRES   REMARKS
DES MOINES     CLEAR     36  26  67 SW6       30.05R WCI  31
IOWA CITY      FAIR      36  27  69 S3        30.08R
FORT DODGE     CLEAR     27  22  81 CALM      30.02R
MARSHALLTOWN   CLEAR     33  26  75 SW3       30.04R
CEDAR RAPIDS   FAIR      37  26  64 W6        30.04R WCI  32
$$

...NORTHERN ILLINOIS...


CITY           SKY/WX    TMP DP  RH WIND       PRES   REMARKS
CHICAGO-OHARE  FAIR      41  25  53 SW12      30.04R
CHICAGO-MIDWAY FAIR      42  25  50 SW13      30.06R
MOLINE         FAIR      39  25  57 CALM      30.07R
ROCKFORD       FAIR      37  24  59 W10       30.06R WCI  30
PEORIA         FAIR      40  24  53 SW6       30.10R
$$

NOTE: "FAIR" INDICATES FEW OR NO CLOUDS BELOW 12,000 FEET WITH NO
SIGNIFICANT WEATHER AND/OR OBSTRUCTIONS TO VISIBILITY. WIND
SPEEDS ARE IN MILES-PER-HOUR.




USA.gov is the U.S. government's official web portal to all federal, state and local government web resources and services.